Regional Weather Roundup
Issued by NWS Memphis, TN

Home | Current Version | Previous Version | Text Only | Print | Product List | Glossary On
Versions: 1 2 3 4 5 6 7 8 9 10 11 12 13 14 15 16 17 18 19 20 21 22 23 24 25 26 27 28 29 30 31 32 33 34 35 36 37 38 39 40 41 42 43 44 45 46 47 48 49 50
000
ASUS44 KMEG 201610
RWRMEG
MEMPHIS CWA HOURLY WEATHER ROUNDUP
NATIONAL WEATHER SERVICE MEMPHIS TN
1000 AM CST SAT DEC 20 2014

...WEST TENNESSEE...

CITY           SKY/WX    TMP DP  RH WIND       PRES   REMARKS
MEMPHIS INTL   CLOUDY    43  31  62 E6        30.28S
NWS MEMPHIS      N/A     42 N/A N/A MISG        N/A
JACKSON        CLOUDY    41  30  65 E6        30.28S
LEXINGTON      CLOUDY    37  28  70 NE7       30.27S WCI  32
SAVANNAH       SUNNY     41  28  60 NE7       30.28S
DYERSBURG      CLOUDY    39  23  52 NE5       30.31S
UNION CITY     CLOUDY    36  30  80 E3        30.29S
PARIS          CLOUDY    34  27  75 CALM      30.29S
HUNTINGDON     CLOUDY    34  27  76 NE5       30.30S WCI  30


...EASTERN ARKANSAS...

CITY           SKY/WX    TMP DP  RH WIND       PRES   REMARKS
JONESBORO      CLOUDY    40  35  83 NE5       30.30R
WEST MEMPHIS   CLOUDY    42  34  73 E3        30.28R
BATESVILLE     CLOUDY    39  34  81 CALM      30.29S
NEWPORT        CLOUDY    40  37  89 NE5       30.31R
WALNUT RIDGE   CLOUDY    39  34  81 NE3       30.30S
BLYTHEVILLE    CLOUDY    41  33  73 E6        30.30R
SEARCY         CLOUDY    41  35  79 NE3       30.31R
STUTTGART      CLOUDY    43  36  75 E6        30.30R
PINE BLUFF     CLOUDY    43  36  76 E6        30.30R
MONTICELLO     SUNNY     45  37  73 E7        30.28R


...NORTH MISSISSIPPI...

CITY           SKY/WX    TMP DP  RH WIND       PRES   REMARKS
TUPELO         SUNNY     43  33  68 E6        30.28S
OXFORD         SUNNY     41  32  70 E7        30.29S
OLIVE BRANCH   PTSUNNY   39  34  81 E6        30.29R WCI  35
TUNICA         CLOUDY    41  34  75 E7        30.30S
CLARKSDALE     PTSUNNY   41  36  81 CALM      30.30R
CORINTH        SUNNY     43  30  61 E6        30.28R
GRENADA        SUNNY     43  36  75 CALM      30.29R
GREENWOOD      SUNNY     46  36  68 NE5       30.28R
COLUMBUS       SUNNY     44  36  72 NE6       30.27S
STARKVILLE     FAIR      43  37  81 N3        30.27S
GOLDEN TRIANGL SUNNY     45  37  76 N5        30.27R


...SOUTHEAST MISSOURI...

CITY           SKY/WX    TMP DP  RH WIND       PRES   REMARKS
WEST PLAINS    CLOUDY    36  33  89 CALM      30.26R
POPLAR BLUFF   CLOUDY    39  31  72 E5        30.30R
CAPE GIRARDEAU CLOUDY    38  30  73 NE3       30.30S


...NORTHWEST ALABAMA...

CITY           SKY/WX    TMP DP  RH WIND       PRES   REMARKS
MUSCLE SHOALS  SUNNY     42  30  62 NE5       30.28S


...MIDDLE TENNESSEE...

CITY           SKY/WX    TMP DP  RH WIND       PRES   REMARKS
NASHVILLE      MOSUNNY   39  28  64 NE5       30.30R
CLARKSVILLE    CLOUDY    35  28  75 CALM      30.30S


...WESTERN KENTUCKY...

CITY           SKY/WX    TMP DP  RH WIND       PRES   REMARKS
PADUCAH        CLOUDY    37  28  70 E6        30.30R WCI  32
FORT CAMPBELL  CLOUDY    35  28  75 E2        30.30S


...CENTRAL ARKANSAS...

CITY           SKY/WX    TMP DP  RH WIND       PRES   REMARKS
LITTLE ROCK    CLOUDY    42  34  73 E3        30.30R


SKY/WX REPORTED AS FAIR MEANS FEW OR NO CLOUDS BELOW
12 THOUSAND FEET.




USA.gov is the U.S. government's official web portal to all federal, state and local government web resources and services.